weather.gov     
National Weather Service

Regional Weather Roundup
NWS Homepage
This page is being discontinued on March 12, 2014.
The same data is available at this site. Please update your bookmarks.
Thank you, and we apologize for the inconvenience.
Please send an email to SR-SRH.Webmaster@noaa.gov with any concerns.


Current Version
Previous Version:    01  02  03  04  05  06  07  08  09  10  11  12  13  14  15  16  17  18  19  20  21  22  23  24  25  26  27  28  29  30  
   31  32  33  34  35  36  37  38  39  40  41  42  43  44  45  46  47  48  49  50  51  52  53  
[Printable]
333
ASCA42 TJSJ 180011
RWRPR
PUERTO RICO/U.S. VIRGIN ISLANDS HOURLY WEATHER ROUNDUP
NATIONAL WEATHER SERVICE SAN JUAN PR
800 PM AST THU APR 17 2014

PRZ001-004-180100-
PUERTO RICO

CITY           SKY/WX    TMP DP  RH WIND       PRES   REMARKS
SAN JUAN LMM   LGT RAIN  79  72  78 E13G20    30.04R
AGUADILLA      MOCLDY    77  68  73 E15G23    30.04R
CEIBA          MOCLDY    81  70  69 E8        30.05R
$$

PRZ006-007-180100-
U.S. VIRGIN ISLANDS

CITY           SKY/WX    TMP DP  RH WIND       PRES   REMARKS
CHARLOTTE AMA  CLEAR     79  72  78 E13G20    30.03R
CHRISTIANSTED  PTCLDY    81  70  69 E14G23    30.03R
$$

HOURLY WEATHER ROUNDUP FOR THE NEWS MEDIA

CITY           SKY/WX    TMP DP  RH WIND       PRES   REMARKS
MIAMI          MOCLDY    78  71  79 E14       30.06F
ORLANDO        MOCLDY    72  62  71 E13       30.17R
NEW YORK       MOCLDY    41  31  67 E13       30.66F
NEWARK         MOCLDY    42  31  64 E8        30.65F
CHICAGO        CLOUDY    57  36  45 W12       30.20S
HARTFORD       CLEAR     35  25  66 NE12      30.70F WCI  27
BOSTON         MOCLDY    36  24  62 NE10      30.75S WCI  28
DALLAS         DRIZZLE   61  52  72 N5        30.14S
PHILADELPHIA   PTCLDY    43  26  51 E12       30.64S




U.S. Dept. of Commerce
NOAA National Weather Service
1325 East West Highway
Silver Spring, MD 20910
E-mail: w-nws.webmaster@noaa.gov
Page last modified: May 16, 2007
NATIONAL WEATHER SERVICE: for Safety, for Work, for Fun - FOR LIFE